| time (UTC) | temp F | wind direction | speed MPH | gust MPH | rain 1hr in | rain 24hr in | rain mn in | humidity % | barometer mb |
| 20260507132519 | 44 | 0 | 14.0 | 20.0 | 0.00 | 0.24 | 0.24 | 87 | 1019.9 |
| 20260507131520 | 43 | 0 | 12.0 | 22.0 | 0.01 | 0.24 | 0.24 | 87 | 1019.9 |
| 20260507130518 | 43 | 0 | 12.0 | 19.0 | 0.02 | 0.24 | 0.24 | 87 | 1019.8 |
| 20260507125538 | 42 | 0 | 12.0 | 19.0 | 0.02 | 0.24 | 0.24 | 87 | 1019.6 |
| 20260507124517 | 41 | 0 | 9.0 | 15.0 | 0.02 | 0.24 | 0.24 | 88 | 1019.6 |
| 20260507123557 | 41 | 0 | 11.0 | 17.0 | 0.02 | 0.24 | 0.24 | 89 | 1019.6 |
| 20260507122517 | 39 | 0 | 13.0 | 19.0 | 0.02 | 0.24 | 0.24 | 89 | 1019.3 |
| 20260507121517 | 39 | 0 | 14.0 | 27.0 | 0.02 | 0.24 | 0.24 | 88 | 1019.4 |
| 20260507120517 | 41 | 0 | 12.0 | 18.0 | 0.00 | 0.22 | 0.22 | 85 | 1019.4 |
| 20260507115519 | 42 | 0 | 11.0 | 19.0 | 0.00 | 0.22 | 0.22 | 85 | 1019.3 |
| 20260507114518 | 41 | 0 | 13.0 | 20.0 | 0.00 | 0.22 | 0.22 | 84 | 1019.3 |
| 20260507113517 | 41 | 0 | 13.0 | 18.0 | 0.00 | 0.22 | 0.22 | 83 | 1019.0 |
| 20260507112537 | 42 | 0 | 9.0 | 16.0 | 0.00 | 0.22 | 0.22 | 85 | 1019.0 |
| 20260507111537 | 40 | 0 | 13.0 | 19.0 | 0.00 | 0.22 | 0.22 | 84 | 1018.8 |
| 20260507110517 | 41 | 0 | 13.0 | 19.0 | 0.00 | 0.22 | 0.22 | 84 | 1018.8 |
| 20260507105517 | 42 | 0 | 13.0 | 22.0 | 0.01 | 0.22 | 0.22 | 84 | 1018.6 |
| 20260507104517 | 43 | 0 | 12.0 | 19.0 | 0.01 | 0.22 | 0.22 | 85 | 1018.4 |
| 20260507103537 | 42 | 0 | 14.0 | 24.0 | 0.01 | 0.22 | 0.22 | 84 | 1018.3 |
| 20260507102517 | 42 | 0 | 14.0 | 21.0 | 0.02 | 0.22 | 0.22 | 85 | 1018.3 |
| 20260507101518 | 41 | 0 | 13.0 | 20.0 | 0.02 | 0.22 | 0.22 | 87 | 1018.2 |
| 20260507100518 | 40 | 0 | 13.0 | 22.0 | 0.02 | 0.22 | 0.22 | 87 | 1018.1 |
| 20260507095518 | 40 | 0 | 16.0 | 26.0 | 0.01 | 0.21 | 0.21 | 87 | 1017.9 |
| 20260507094539 | 41 | 0 | 15.0 | 25.0 | 0.01 | 0.21 | 0.21 | 86 | 1017.8 |
| 20260507093516 | 41 | 0 | 13.0 | 18.0 | 0.01 | 0.21 | 0.21 | 83 | 1017.7 |
| 20260507092517 | 42 | 0 | 12.0 | 18.0 | 0.00 | 0.20 | 0.20 | 82 | 1017.8 |
| 20260507091516 | 42 | 0 | 10.0 | 18.0 | 0.00 | 0.20 | 0.20 | 86 | 1017.7 |
| 20260507090516 | 40 | 0 | 12.0 | 21.0 | 0.00 | 0.20 | 0.20 | 83 | 1017.7 |
| 20260507085516 | 42 | 0 | 15.0 | 24.0 | 0.00 | 0.20 | 0.20 | 80 | 1017.6 |
| 20260507084556 | 43 | 0 | 12.0 | 19.0 | 0.00 | 0.20 | 0.20 | 77 | 1017.4 |
| 20260507083516 | 43 | 0 | 13.0 | 20.0 | 0.00 | 0.20 | 0.20 | 77 | 1017.3 |
| 20260507082516 | 43 | 0 | 11.0 | 19.0 | 0.00 | 0.20 | 0.20 | 79 | 1017.2 |
| 20260507081516 | 42 | 0 | 12.0 | 20.0 | 0.00 | 0.20 | 0.20 | 80 | 1017.1 |
| 20260507080516 | 42 | 0 | 11.0 | 16.0 | 0.00 | 0.20 | 0.20 | 81 | 1017.0 |
| 20260507075516 | 42 | 0 | 9.0 | 14.0 | 0.00 | 0.20 | 0.20 | 82 | 1016.8 |
| 20260507074516 | 42 | 0 | 3.0 | 8.0 | 0.00 | 0.20 | 0.20 | 86 | 1016.7 |
| 20260507073516 | 41 | 0 | 4.0 | 8.0 | 0.00 | 0.20 | 0.20 | 86 | 1016.7 |
| 20260507072517 | 41 | 0 | 4.0 | 6.0 | 0.00 | 0.20 | 0.20 | 86 | 1016.6 |
| 20260507071516 | 40 | 0 | 5.0 | 9.0 | 0.00 | 0.21 | 0.20 | 87 | 1016.6 |
| 20260507070516 | 40 | 0 | 5.0 | 10.0 | 0.00 | 0.21 | 0.20 | 88 | 1016.5 |
| 20260507065516 | 39 | 0 | 5.0 | 9.0 | 0.00 | 0.21 | 0.20 | 88 | 1016.5 |
| 20260507064516 | 39 | 0 | 4.0 | 8.0 | 0.00 | 0.21 | 0.20 | 89 | 1016.4 |
| 20260507063516 | 39 | 0 | 5.0 | 10.0 | 0.00 | 0.21 | 0.20 | 89 | 1016.4 |
| 20260507062516 | 38 | 0 | 6.0 | 10.0 | 0.00 | 0.21 | 0.20 | 89 | 1016.4 |
| 20260507061516 | 38 | 0 | 6.0 | 11.0 | 0.00 | 0.21 | 0.20 | 90 | 1016.3 |
| 20260507060516 | 38 | 0 | 4.0 | 9.0 | 0.01 | 0.21 | 0.20 | 91 | 1016.2 |
| 20260507055516 | 38 | 0 | 3.0 | 8.0 | 0.01 | 0.21 | 0.20 | 92 | 1016.3 |
| 20260507054516 | 37 | 0 | 3.0 | 8.0 | 0.02 | 0.21 | 0.20 | 92 | 1016.2 |
| 20260507053516 | 37 | 0 | 2.0 | 6.0 | 0.02 | 0.21 | 0.20 | 92 | 1016.4 |
| 20260507052516 | 37 | 0.0 | 2.0 | 0.02 | 0.21 | 0.20 | 92 | 1016.5 | |
| 20260507051517 | 37 | 0 | 1.0 | 4.0 | 0.03 | 0.21 | 0.20 | 92 | 1016.5 |
| 20260507050536 | 37 | 0 | 4.0 | 8.0 | 0.05 | 0.20 | 0.20 | 92 | 1016.6 |
| 20260507045516 | 37 | 0 | 3.0 | 9.0 | 0.08 | 0.20 | 0.20 | 92 | 1016.5 |
| 20260507044536 | 37 | 0 | 1.0 | 3.0 | 0.09 | 0.20 | 0.19 | 91 | 1016.4 |
| 20260507043516 | 37 | 0 | 1.0 | 4.0 | 0.09 | 0.20 | 0.19 | 91 | 1016.4 |
| 20260507042515 | 37 | 0 | 1.0 | 3.0 | 0.09 | 0.19 | 0.18 | 91 | 1016.3 |
| 20260507041516 | 37 | 0 | 3.0 | 5.0 | 0.08 | 0.18 | 0.17 | 91 | 1016.1 |
| 20260507040516 | 36 | 0 | 3.0 | 4.0 | 0.06 | 0.16 | 0.15 | 91 | 1016.2 |
| 20260507035516 | 38 | 0 | 4.0 | 8.0 | 0.03 | 0.13 | 0.12 | 90 | 1016.2 |
| 20260507034556 | 38 | 0 | 8.0 | 12.0 | 0.01 | 0.10 | 0.09 | 91 | 1016.0 |
| 20260507033515 | 38 | 0 | 6.0 | 11.0 | 0.02 | 0.10 | 0.09 | 91 | 1016.0 |
| 20260507032536 | 38 | 0 | 3.0 | 6.0 | 0.03 | 0.10 | 0.09 | 91 | 1016.0 |
| 20260507031515 | 37 | 0 | 3.0 | 6.0 | 0.04 | 0.10 | 0.09 | 91 | 1015.9 |
| 20260507030516 | 37 | 0 | 3.0 | 4.0 | 0.04 | 0.10 | 0.09 | 91 | 1015.9 |
| 20260507025516 | 37 | 0 | 2.0 | 5.0 | 0.03 | 0.09 | 0.09 | 91 | 1015.8 |
| 20260507024518 | 36 | 0 | 3.0 | 6.0 | 0.03 | 0.09 | 0.09 | 90 | 1015.8 |
| 20260507023518 | 37 | 0 | 5.0 | 8.0 | 0.03 | 0.09 | 0.08 | 90 | 1015.8 |
| 20260507022517 | 37 | 0 | 10.0 | 17.0 | 0.02 | 0.08 | 0.07 | 90 | 1015.8 |
| 20260507021517 | 37 | 0 | 12.0 | 19.0 | 0.02 | 0.07 | 0.06 | 89 | 1015.7 |
| 20260507020517 | 38 | 0 | 9.0 | 15.0 | 0.03 | 0.07 | 0.06 | 91 | 1015.6 |
| 20260507015517 | 38 | 0 | 10.0 | 17.0 | 0.04 | 0.07 | 0.06 | 90 | 1015.6 |
| 20260507014515 | 38 | 0 | 9.0 | 15.0 | 0.06 | 0.08 | 0.06 | 91 | 1015.6 |
| 20260507013517 | 37 | 0 | 6.0 | 14.0 | 0.05 | 0.09 | 0.05 | 90 | 1015.6 |
| 20260507012517 | 36 | 0 | 3.0 | 6.0 | 0.04 | 0.09 | 0.04 | 89 | 1015.5 |
| 20260507011517 | 36 | 0 | 6.0 | 10.0 | 0.03 | 0.09 | 0.03 | 89 | 1015.6 |
| 20260507010517 | 37 | 0 | 8.0 | 15.0 | 0.02 | 0.08 | 0.02 | 89 | 1015.5 |
| 20260507005517 | 37 | 0 | 7.0 | 11.0 | 0.02 | 0.07 | 0.02 | 88 | 1015.4 |
| 20260507004517 | 38 | 0 | 6.0 | 11.0 | 0.00 | 0.06 | 0.00 | 88 | 1015.4 |
| 20260507003517 | 37 | 0 | 6.0 | 9.0 | 0.00 | 0.06 | 0.00 | 87 | 1015.3 |
| 20260507002537 | 38 | 0 | 5.0 | 11.0 | 0.00 | 0.06 | 0.00 | 86 | 1015.1 |
| 20260507001537 | 38 | 0 | 5.0 | 11.0 | 0.00 | 0.06 | 0.00 | 86 | 1014.9 |
| 20260507000517 | 38 | 0 | 5.0 | 11.0 | 0.00 | 0.06 | 0.00 | 86 | 1014.7 |
| 20260506235517 | 39 | 0 | 3.0 | 8.0 | 0.00 | 0.06 | 0.00 | 85 | 1014.7 |
| 20260506234517 | 39 | 0 | 5.0 | 10.0 | 0.00 | 0.06 | 0.00 | 85 | 1014.7 |
| 20260506233537 | 39 | 0 | 4.0 | 9.0 | 0.00 | 0.06 | 0.00 | 85 | 1014.7 |
| 20260506232517 | 39 | 0 | 4.0 | 9.0 | 0.00 | 0.06 | 0.00 | 85 | 1014.6 |
| 20260506231517 | 39 | 0 | 2.0 | 5.0 | 0.00 | 0.06 | 0.00 | 85 | 1014.7 |
| 20260506230517 | 38 | 0 | 3.0 | 5.0 | 0.00 | 0.06 | 0.00 | 84 | 1014.6 |
| 20260506225518 | 38 | 0 | 3.0 | 5.0 | 0.00 | 0.07 | 0.00 | 84 | 1014.5 |
| 20260506224517 | 38 | 0 | 3.0 | 5.0 | 0.00 | 0.08 | 0.00 | 84 | 1014.6 |
| 20260506223517 | 38 | 0 | 2.0 | 5.0 | 0.00 | 0.08 | 0.00 | 83 | 1014.8 |
| 20260506222517 | 38 | 0 | 1.0 | 3.0 | 0.00 | 0.08 | 0.00 | 83 | 1014.7 |
| 20260506221517 | 38 | 0 | 3.0 | 5.0 | 0.00 | 0.09 | 0.00 | 83 | 1014.7 |
| 20260506220519 | 38 | 0.0 | 0.0 | 0.00 | 0.09 | 0.00 | 82 | 1014.7 | |
| 20260506215517 | 38 | 0 | 3.0 | 9.0 | 0.00 | 0.09 | 0.09 | 81 | 1014.8 |
| 20260506214517 | 39 | 0 | 11.0 | 18.0 | 0.00 | 0.10 | 0.09 | 80 | 1014.8 |
| 20260506213517 | 39 | 0 | 4.0 | 8.0 | 0.00 | 0.12 | 0.09 | 82 | 1014.7 |
| 20260506212516 | 39 | 0 | 3.0 | 4.0 | 0.00 | 0.12 | 0.09 | 82 | 1014.6 |
| 20260506211516 | 39 | 0 | 3.0 | 6.0 | 0.00 | 0.12 | 0.09 | 82 | 1014.5 |
| 20260506210517 | 39 | 0 | 3.0 | 5.0 | 0.00 | 0.12 | 0.09 | 82 | 1014.6 |
| 20260506205516 | 39 | 0 | 3.0 | 6.0 | 0.00 | 0.12 | 0.09 | 83 | 1014.6 |
| 20260506204517 | 39 | 0 | 3.0 | 5.0 | 0.00 | 0.12 | 0.09 | 82 | 1014.5 |
| 20260506203516 | 39 | 0 | 3.0 | 5.0 | 0.00 | 0.12 | 0.09 | 82 | 1014.4 |
| 20260506202517 | 39 | 0 | 3.0 | 5.0 | 0.00 | 0.12 | 0.09 | 82 | 1014.5 |
| 20260506201537 | 39 | 0 | 4.0 | 6.0 | 0.00 | 0.12 | 0.09 | 82 | 1014.5 |
| 20260506200516 | 39 | 0 | 2.0 | 5.0 | 0.00 | 0.12 | 0.09 | 82 | 1014.4 |
| 20260506195516 | 39 | 0 | 4.0 | 8.0 | 0.00 | 0.12 | 0.09 | 82 | 1014.4 |
| 20260506194516 | 40 | 0 | 4.0 | 6.0 | 0.00 | 0.12 | 0.09 | 82 | 1014.5 |
| 20260506193515 | 40 | 0 | 4.0 | 8.0 | 0.00 | 0.12 | 0.09 | 81 | 1014.4 |
| 20260506192536 | 40 | 0 | 4.0 | 8.0 | 0.00 | 0.12 | 0.09 | 82 | 1014.3 |
| 20260506191516 | 41 | 0 | 4.0 | 8.0 | 0.00 | 0.12 | 0.09 | 81 | 1014.2 |
| 20260506190515 | 41 | 0 | 4.0 | 8.0 | 0.00 | 0.12 | 0.09 | 81 | 1014.3 |
| 20260506185515 | 41 | 0 | 6.0 | 10.0 | 0.00 | 0.12 | 0.09 | 81 | 1014.3 |
| 20260506184536 | 41 | 0 | 5.0 | 8.0 | 0.00 | 0.12 | 0.09 | 81 | 1014.1 |
| 20260506183537 | 41 | 0 | 5.0 | 10.0 | 0.00 | 0.13 | 0.09 | 81 | 1014.1 |
| 20260506182518 | 42 | 0 | 6.0 | 10.0 | 0.00 | 0.14 | 0.09 | 81 | 1014.0 |
| 20260506180517 | 42 | 0 | 8.0 | 13.0 | 0.00 | 0.14 | 0.09 | 80 | 1014.0 |
| 20260506175518 | 43 | 0 | 7.0 | 12.0 | 0.00 | 0.14 | 0.09 | 81 | 1014.2 |
| 20260506174538 | 42 | 0 | 7.0 | 11.0 | 0.00 | 0.14 | 0.09 | 81 | 1014.1 |
| 20260506173517 | 42 | 0 | 7.0 | 11.0 | 0.00 | 0.16 | 0.09 | 80 | 1014.1 |
| 20260506172517 | 42 | 0 | 8.0 | 13.0 | 0.00 | 0.19 | 0.09 | 79 | 1013.9 |
| 20260506171517 | 42 | 0 | 6.0 | 9.0 | 0.00 | 0.20 | 0.09 | 77 | 1013.8 |
| 20260506170517 | 41 | 0 | 6.0 | 11.0 | 0.00 | 0.20 | 0.09 | 79 | 1013.8 |
| 20260506165557 | 41 | 0 | 6.0 | 10.0 | 0.00 | 0.20 | 0.09 | 81 | 1013.9 |
| 20260506164517 | 40 | 0 | 6.0 | 10.0 | 0.00 | 0.20 | 0.09 | 83 | 1013.8 |
| 20260506163537 | 40 | 0 | 6.0 | 10.0 | 0.00 | 0.20 | 0.09 | 84 | 1013.9 |
| 20260506162517 | 40 | 0 | 7.0 | 12.0 | 0.00 | 0.20 | 0.09 | 84 | 1014.0 |
| 20260506161517 | 40 | 0 | 7.0 | 11.0 | 0.00 | 0.20 | 0.09 | 84 | 1013.9 |
| 20260506160537 | 41 | 0 | 5.0 | 9.0 | 0.00 | 0.20 | 0.09 | 84 | 1013.9 |
| 20260506155517 | 41 | 0 | 7.0 | 10.0 | 0.00 | 0.20 | 0.09 | 84 | 1014.0 |
| 20260506154517 | 41 | 0 | 8.0 | 13.0 | 0.00 | 0.20 | 0.09 | 83 | 1013.9 |
| 20260506153517 | 42 | 0 | 9.0 | 14.0 | 0.00 | 0.20 | 0.09 | 83 | 1014.1 |
| 20260506152517 | 42 | 0 | 10.0 | 16.0 | 0.00 | 0.20 | 0.09 | 83 | 1014.1 |
| 20260506151517 | 43 | 0 | 10.0 | 16.0 | 0.00 | 0.20 | 0.09 | 83 | 1014.0 |
| 20260506150558 | 42 | 0 | 9.0 | 15.0 | 0.00 | 0.20 | 0.09 | 82 | 1014.0 |
| 20260506145517 | 43 | 0 | 8.0 | 13.0 | 0.00 | 0.20 | 0.09 | 80 | 1014.0 |
| 20260506144520 | 42 | 0 | 6.0 | 11.0 | 0.00 | 0.24 | 0.09 | 80 | 1013.9 |
| 20260506143518 | 42 | 0 | 8.0 | 13.0 | 0.00 | 0.24 | 0.09 | 82 | 1013.9 |
| 20260506142517 | 41 | 0 | 10.0 | 15.0 | 0.00 | 0.24 | 0.09 | 82 | 1013.8 |
| 20260506141518 | 40 | 0 | 8.0 | 12.0 | 0.00 | 0.24 | 0.09 | 85 | 1013.9 |
| 20260506140520 | 40 | 0 | 11.0 | 16.0 | 0.00 | 0.24 | 0.09 | 85 | 1013.9 |
| 20260506135519 | 41 | 0 | 12.0 | 20.0 | 0.00 | 0.24 | 0.09 | 84 | 1014.0 |
| 20260506134538 | 43 | 0 | 11.0 | 16.0 | 0.00 | 0.24 | 0.09 | 84 | 1014.0 |
| 20260506133517 | 42 | 0 | 11.0 | 18.0 | 0.00 | 0.24 | 0.09 | 86 | 1013.9 |